星链-4589 (STARLINK-4589 )

导读 | 星芒AI

STARLINK-4589 是 SpaceX Starlink 卫星互联网项目中的一颗低轨卫星,属于“星链”计划的数千颗卫星之一。该卫星旨在为全球用户提供高速互联网接入服务,尤其关注网络覆盖不足的地区。它运行在约 550 公里的轨道高度,采用先进通信技术,支持宽带数据传输。STARLINK-4589 与其他星链卫星协同工作,构建起全球性的卫星通信网络,提升全球互联网的可及性与稳定性。

基本信息
目录编号:
53746
目录名称:
STARLINK-4589
国际标识:
2022-107AY
轨道中心:
EARTH
卫星名称:
星链-4589
卫星全名:
星链-4589 (STARLINK-4589 )
卫星状态:
在轨 (已飞行1157 天)
发射日期:
2022-09-05 UTC
国别 :
美国 (US)
星等 :
--
轨道信息
数据来源 国际轨道数据
星历时间: 2025-11-05T03:59:57+0800
5小时前
查看轨道信息
半长轴: 6917.897km
偏心率: 0.000105
轨道倾角: 53.216°
近地点辐角 88.553°
升交点赤经 104.670°
平近点角 271.558°
近地点: 539.035km
远地点: 540.489km
周期: 95.438分钟
每日圈数: 15.088348
详细信息
固有亮度:
5
最大亮度:
2.5
卫星平台:
Starlink v1.5
覆盖范围:
全球
运营商:
太空探索技术公司
运营商所在国:
美国
制造商(研发单位):
太空探索技术公司
制造商所在国:
美国
使用方式:
暂无
卫星简介
星链(Starlink)计划是由太空探索技术公司(SpaceX)提出的一个巨型低轨卫星互联网星座项目,计划在2019年至2024年间在太空搭建由约1.2万颗卫星组成的“星链”网络,其中1584颗将部署在地球上空550千米处的近地轨道,并从2020年开始工作。该卫星仍在工作。
2D轨道图
3D轨道图
轨道高度分析图
轨道倾角分析图
轨道综合分析图
查看轨道综合分析图